Home > Weather > Aurora > Past weeks

Flag for USA Past Weather in Aurora, Colorado, USA — Yesterday and Last 2 Weeks

Now
63 °F

Partly cloudy.


Feels Like: 63 °F
Forecast: 60 / 80 °F
Wind: 10 mph from Southeast

Location: Buckley Air Force Base

Current Time: Aug 28, 2016 at 9:56:43 PM

Latest Report: Aug 28, 2016 at 8:58 PM


Visibility: 10 mi

Pressure: 30.06 "Hg (24.77 "Hg at 1647m altitude)

Humidity: 51%

Dew Point: 45 °F

Location of AuroraLocation

Past Weather in Aurora — Graph

°F

Aurora Temperature Yesterday

Maximum temperature yesterday: 82 °F (at 4:58 PM)
Minimum temperature yesterday: 49 °F (at 5:58 AM)
Average temperature yesterday: 67 °F

High & Low Weather Summary for the Past Weeks

 TemperatureHumidityPressure
High92 °F (Aug 17, 12:58 PM)100% (Aug 19, 4:03 AM)30.29 "Hg (Aug 19, 4:03 AM)
Low46 °F (Aug 20, 6:58 AM)11% (Aug 15, 2:58 PM)29.69 "Hg (Aug 22, 3:58 PM)
Average68 °F48%29.96 "Hg
* Reported Aug 13 7:58 PM — Aug 28 7:58 PM, Aurora, Weather by CustomWeather, © 2016

Note: Actual official high and low records may vary slightly from our data, if they occured in-between our weather recording intervals... More about our weather records

Advertising

Aurora Weather History for the Previous 24 Hours

Scroll right to see more
 ConditionsComfort  
Time TempWeatherWind HumidityBarometerVisibility
7:58 PM
Sun, Aug 28
68 °FBroken clouds.7 mph43%30.04 "Hg10 mi
6:58 PM74 °FPartly sunny.No wind32%30.00 "Hg10 mi
5:58 PM77 °FPartly sunny.12 mph29%29.96 "Hg10 mi
4:58 PM81 °FBroken clouds.16 mph25%29.94 "Hg10 mi
3:58 PM82 °FPartly sunny.6 mph19%29.94 "Hg10 mi
2:58 PM83 °FBroken clouds.5 mph19%29.94 "Hg10 mi
1:58 PM85 °FBroken clouds.8 mph17%29.95 "Hg10 mi
12:58 PM82 °FScattered clouds.8 mph18%29.96 "Hg10 mi
11:58 AM80 °FScattered clouds.6 mph22%29.98 "Hg10 mi
10:58 AM79 °FBroken clouds.7 mph21%29.98 "Hg10 mi
9:58 AM75 °FBroken clouds.5 mph31%29.98 "Hg10 mi
8:58 AM69 °FPartly sunny.9 mph39%29.99 "Hg10 mi
7:58 AM65 °FPartly sunny.5 mph49%30.00 "Hg10 mi
6:58 AM60 °FPassing clouds.No wind58%30.00 "Hg10 mi
5:58 AM61 °FPassing clouds.5 mph58%29.96 "Hg10 mi
4:58 AM61 °FPartly cloudy.5 mph56%29.93 "Hg10 mi
3:58 AM61 °FPartly cloudy.2 mph60%29.93 "Hg10 mi
2:58 AM63 °FPassing clouds.6 mph57%29.92 "Hg10 mi
1:58 AM62 °FPassing clouds.10 mph59%29.91 "Hg10 mi
12:58 AM64 °FPassing clouds.10 mph55%29.91 "Hg10 mi
11:58 PM
Sat, Aug 27
64 °FPassing clouds.9 mph55%29.92 "Hg10 mi
10:58 PM66 °FPassing clouds.9 mph51%29.93 "Hg10 mi
9:58 PM67 °FPassing clouds.14 mph47%29.92 "Hg10 mi
Weather by CustomWeather, © 2016

See weather overviewHow to use our weather pages